Time,TemperatureF,DewpointF,PressureIn,WindDirection,WindDirectionDegrees,WindSpeedMPH,WindSpeedGustMPH,Humidity,HourlyPrecipIn,Conditions,Clouds,dailyrainin,SoftwareType,DateUTC
2013-01-19 00:02:00,17.0,12.0,-100.00,West,265,1.0,2.0,81,0.00,,,-99.99,,2013-01-19 06:02:00,
2013-01-19 00:12:00,17.0,12.0,-100.00,West,265,1.0,1.0,81,0.00,,,-99.99,,2013-01-19 06:12:00,
2013-01-19 00:22:00,17.0,12.0,-100.00,West,265,1.0,1.0,81,0.00,,,-99.99,,2013-01-19 06:22:00,
2013-01-19 00:32:00,17.0,12.0,-100.00,West,265,1.0,1.0,81,0.00,,,-99.99,,2013-01-19 06:32:00,
2013-01-19 00:43:00,17.0,12.0,-100.00,WNW,295,1.0,4.0,81,0.00,,,-99.99,,2013-01-19 06:43:00,
2013-01-19 00:53:00,17.0,12.0,-100.00,WNW,295,1.0,4.0,81,0.00,,,-99.99,,2013-01-19 06:53:00,
2013-01-19 01:02:00,17.0,12.0,-100.00,West,265,2.0,3.0,81,0.00,,,-99.99,,2013-01-19 07:02:00,
2013-01-19 01:12:00,17.0,12.0,-100.00,West,265,2.0,3.0,81,0.00,,,-99.99,,2013-01-19 07:12:00,
2013-01-19 01:22:00,17.0,12.0,-100.00,West,265,2.0,3.0,81,0.00,,,-99.99,,2013-01-19 07:22:00,
2013-01-19 01:32:00,17.0,12.0,-100.00,West,265,2.0,3.0,81,0.00,,,-99.99,,2013-01-19 07:32:00,
2013-01-19 01:42:00,17.0,12.0,-100.00,WNW,295,1.0,2.0,81,0.00,,,-99.99,,2013-01-19 07:42:00,
2013-01-19 01:53:00,17.0,12.0,-100.00,WNW,295,1.0,2.0,81,0.00,,,-99.99,,2013-01-19 07:53:00,
2013-01-19 02:02:00,17.0,12.0,-100.00,WNW,295,1.0,2.0,81,0.00,,,-99.99,,2013-01-19 08:02:00,
2013-01-19 02:12:00,17.0,13.0,-100.00,WNW,295,1.0,2.0,81,0.00,,,-99.99,,2013-01-19 08:12:00,
2013-01-19 02:22:00,17.0,13.0,-100.00,WNW,295,1.0,2.0,81,0.00,,,-99.99,,2013-01-19 08:22:00,
2013-01-19 02:32:00,17.0,13.0,-100.00,WNW,295,1.0,2.0,81,0.00,,,-99.99,,2013-01-19 08:32:00,
2013-01-19 02:43:00,18.0,13.0,-100.00,SSW,195,1.0,1.0,81,0.03,,,-99.99,,2013-01-19 08:43:00,
2013-01-19 02:53:00,18.0,13.0,-100.00,SSW,195,1.0,1.0,81,0.03,,,-99.99,,2013-01-19 08:53:00,
2013-01-19 03:02:00,18.0,13.0,-100.00,SSW,195,1.0,1.0,81,0.03,,,-99.99,,2013-01-19 09:02:00,
2013-01-19 03:12:00,18.0,13.0,-100.00,South,185,0.0,0.0,81,0.01,,,-99.99,,2013-01-19 09:12:00,
2013-01-19 03:23:00,18.0,13.0,-100.00,South,185,0.0,0.0,81,0.01,,,-99.99,,2013-01-19 09:23:00,
2013-01-19 03:33:00,18.0,13.0,-100.00,South,185,0.0,0.0,81,0.01,,,-99.99,,2013-01-19 09:33:00,
2013-01-19 03:42:00,18.0,13.0,-100.00,ENE,70,1.0,2.0,81,0.00,,,-99.99,,2013-01-19 09:42:00,
2013-01-19 03:53:00,18.0,13.0,-100.00,ENE,70,1.0,2.0,81,0.00,,,-99.99,,2013-01-19 09:53:00,
2013-01-19 04:02:00,18.0,13.0,-100.00,ENE,70,1.0,2.0,81,0.00,,,-99.99,,2013-01-19 10:02:00,
2013-01-19 04:12:00,18.0,13.0,-100.00,ENE,65,0.0,1.0,81,0.00,,,-99.99,,2013-01-19 10:12:00,
2013-01-19 04:22:00,18.0,13.0,-100.00,ENE,65,0.0,1.0,81,0.00,,,-99.99,,2013-01-19 10:22:00,
2013-01-19 04:32:00,18.0,13.0,-100.00,ENE,65,0.0,1.0,81,0.00,,,-99.99,,2013-01-19 10:32:00,
2013-01-19 04:42:00,18.0,14.0,-100.00,ESE,120,2.0,3.0,82,0.00,,,-99.99,,2013-01-19 10:42:00,
2013-01-19 04:53:00,18.0,14.0,-100.00,ESE,120,2.0,3.0,82,0.00,,,-99.99,,2013-01-19 10:53:00,
2013-01-19 05:03:00,18.0,14.0,-100.00,ESE,120,2.0,3.0,82,0.00,,,-99.99,,2013-01-19 11:03:00,
2013-01-19 05:12:00,19.0,14.0,-100.00,ESE,105,1.0,1.0,82,0.00,,,-99.99,,2013-01-19 11:12:00,
2013-01-19 06:48:00,19.0,15.0,-100.00,East,95,2.0,6.0,84,0.00,,,-99.99,,2013-01-19 12:48:00,
2013-01-19 06:53:00,19.0,15.0,-100.00,East,95,2.0,6.0,84,0.00,,,-99.99,,2013-01-19 12:53:00,
2013-01-19 07:03:00,19.0,15.0,-100.00,East,95,2.0,6.0,84,0.00,,,-99.99,,2013-01-19 13:03:00,
2013-01-19 07:12:00,19.0,15.0,-100.00,WSW,245,0.0,4.0,84,0.00,,,-99.99,,2013-01-19 13:12:00,
2013-01-19 07:22:00,19.0,15.0,-100.00,WSW,245,0.0,4.0,84,0.00,,,-99.99,,2013-01-19 13:22:00,
2013-01-19 07:33:00,19.0,15.0,-100.00,WSW,245,0.0,4.0,84,0.00,,,-99.99,,2013-01-19 13:33:00,
2013-01-19 07:42:00,20.0,15.0,-100.00,North,10,0.0,1.0,84,0.00,,,-99.99,,2013-01-19 13:42:00,
2013-01-19 07:53:00,20.0,15.0,-100.00,North,10,0.0,1.0,84,0.00,,,-99.99,,2013-01-19 13:53:00,
2013-01-19 08:02:00,20.0,15.0,-100.00,North,10,0.0,1.0,84,0.00,,,-99.99,,2013-01-19 14:02:00,
2013-01-19 08:12:00,20.0,16.0,-100.00,SE,125,0.0,1.0,84,0.00,,,-99.99,,2013-01-19 14:12:00,
2013-01-19 08:23:00,20.0,16.0,-100.00,SE,125,0.0,1.0,84,0.00,,,-99.99,,2013-01-19 14:23:00,
2013-01-19 08:34:00,20.0,16.0,-100.00,SE,125,0.0,1.0,84,0.00,,,-99.99,,2013-01-19 14:34:00,
2013-01-19 08:43:00,20.0,16.0,-100.00,NNW,345,1.0,1.0,84,0.00,,,-99.99,,2013-01-19 14:43:00,
2013-01-19 08:53:00,20.0,16.0,-100.00,NNW,345,1.0,1.0,84,0.00,,,-99.99,,2013-01-19 14:53:00,
2013-01-19 09:03:00,20.0,16.0,-100.00,NNW,345,1.0,1.0,84,0.00,,,-99.99,,2013-01-19 15:03:00,
2013-01-19 09:12:00,21.0,17.0,-100.00,East,100,1.0,2.0,84,0.00,,,-99.99,,2013-01-19 15:12:00,
2013-01-19 09:23:00,21.0,17.0,-100.00,East,100,1.0,2.0,84,0.00,,,-99.99,,2013-01-19 15:23:00,
2013-01-19 09:33:00,21.0,17.0,-100.00,East,100,1.0,2.0,84,0.00,,,-99.99,,2013-01-19 15:33:00,
2013-01-19 09:43:00,23.0,18.0,-100.00,ESE,105,0.0,1.0,81,0.00,,,-99.99,,2013-01-19 15:43:00,
2013-01-19 09:53:00,23.0,18.0,-100.00,ESE,105,0.0,1.0,81,0.00,,,-99.99,,2013-01-19 15:53:00,
2013-01-19 10:03:00,23.0,18.0,-100.00,ESE,105,0.0,1.0,81,0.00,,,-99.99,,2013-01-19 16:03:00,
2013-01-19 10:13:00,26.0,20.0,-100.00,SW,235,1.0,3.0,79,0.00,,,-99.99,,2013-01-19 16:13:00,
2013-01-19 10:23:00,26.0,20.0,-100.00,SW,235,1.0,3.0,79,0.00,,,-99.99,,2013-01-19 16:23:00,
2013-01-19 10:33:00,26.0,20.0,-100.00,SW,235,1.0,3.0,79,0.00,,,-99.99,,2013-01-19 16:33:00,
2013-01-19 10:43:00,28.0,22.0,-100.00,West,260,3.0,10.0,78,0.00,,,-99.99,,2013-01-19 16:43:00,
2013-01-19 10:54:00,28.0,22.0,-100.00,West,260,3.0,10.0,78,0.00,,,-99.99,,2013-01-19 16:54:00,
2013-01-19 11:03:00,28.0,22.0,-100.00,West,260,3.0,10.0,78,0.00,,,-99.99,,2013-01-19 17:03:00,
2013-01-19 11:19:00,29.0,23.0,-100.00,West,270,7.0,16.0,78,0.00,,,-99.99,,2013-01-19 17:19:00,
2013-01-19 11:28:00,29.0,23.0,-100.00,West,270,7.0,16.0,78,0.00,,,-99.99,,2013-01-19 17:28:00,
2013-01-19 11:35:00,29.0,23.0,-100.00,West,270,7.0,16.0,78,0.00,,,-99.99,,2013-01-19 17:35:00,
2013-01-19 11:47:00,29.0,23.0,-100.00,West,270,12.0,21.0,78,0.00,,,-99.99,,2013-01-19 17:47:00,
2013-01-19 11:55:00,29.0,23.0,-100.00,West,270,12.0,21.0,78,0.00,,,-99.99,,2013-01-19 17:55:00,
2013-01-19 12:11:00,29.0,23.0,-100.00,West,270,12.0,21.0,78,0.00,,,-99.99,,2013-01-19 18:11:00,
2013-01-19 12:27:00,29.0,22.0,-100.00,West,260,8.0,17.0,75,0.00,,,-99.99,,2013-01-19 18:27:00,
2013-01-19 12:35:00,29.0,22.0,-100.00,West,260,8.0,17.0,75,0.00,,,-99.99,,2013-01-19 18:35:00,
2013-01-19 12:45:00,29.0,22.0,-100.00,WNW,285,11.0,24.0,73,0.00,,,-99.99,,2013-01-19 18:45:00,
2013-01-19 13:02:00,29.0,22.0,-100.00,WNW,285,11.0,24.0,73,0.00,,,-99.99,,2013-01-19 19:02:00,
2013-01-19 13:09:00,29.0,22.0,-100.00,WNW,285,11.0,24.0,73,0.00,,,-99.99,,2013-01-19 19:09:00,
2013-01-19 13:29:00,29.0,20.0,-100.00,West,270,9.0,23.0,67,0.00,,,-99.99,,2013-01-19 19:29:00,
2013-01-19 13:39:00,29.0,20.0,-100.00,West,270,9.0,23.0,67,0.00,,,-99.99,,2013-01-19 19:39:00,
2013-01-19 13:45:00,30.0,20.0,-100.00,West,275,10.0,17.0,67,0.00,,,-99.99,,2013-01-19 19:45:00,
2013-01-19 13:58:00,30.0,20.0,-100.00,West,275,10.0,17.0,67,0.00,,,-99.99,,2013-01-19 19:58:00,
2013-01-19 14:10:00,30.0,20.0,-100.00,West,275,10.0,17.0,67,0.00,,,-99.99,,2013-01-19 20:10:00,
2013-01-19 14:25:00,30.0,19.0,-100.00,West,275,9.0,15.0,64,0.00,,,-99.99,,2013-01-19 20:25:00,
2013-01-19 14:38:00,30.0,19.0,-100.00,West,275,9.0,15.0,64,0.00,,,-99.99,,2013-01-19 20:38:00,
2013-01-19 14:47:00,31.0,18.0,-100.00,West,265,11.0,23.0,59,0.00,,,-99.99,,2013-01-19 20:47:00,
2013-01-19 14:59:00,31.0,18.0,-100.00,West,265,11.0,23.0,59,0.00,,,-99.99,,2013-01-19 20:59:00,
2013-01-19 15:06:00,31.0,18.0,-100.00,West,265,11.0,23.0,59,0.00,,,-99.99,,2013-01-19 21:06:00,
2013-01-19 15:14:00,31.0,16.0,-100.00,West,275,7.0,18.0,55,0.00,,,-99.99,,2013-01-19 21:14:00,
2013-01-19 15:44:00,31.0,16.0,-100.00,West,275,7.0,18.0,55,0.00,,,-99.99,,2013-01-19 21:44:00,
2013-01-19 15:50:00,24.0,14.0,-100.00,WNW,290,14.0,31.0,66,0.34,,,-99.99,,2013-01-19 21:50:00,
2013-01-19 16:00:00,24.0,14.0,-100.00,WNW,290,14.0,31.0,66,0.34,,,-99.99,,2013-01-19 22:00:00,
2013-01-19 16:13:00,24.0,14.0,-100.00,WNW,290,14.0,31.0,66,0.34,,,-99.99,,2013-01-19 22:13:00,
2013-01-19 16:27:00,22.0,11.0,-100.00,West,275,15.0,29.0,65,0.17,,,-99.99,,2013-01-19 22:27:00,
2013-01-19 16:35:00,22.0,11.0,-100.00,West,275,15.0,29.0,65,0.17,,,-99.99,,2013-01-19 22:35:00,
2013-01-19 16:46:00,18.0,6.0,-100.00,WNW,290,15.0,27.0,57,0.06,,,-99.99,,2013-01-19 22:46:00,
2013-01-19 16:58:00,18.0,6.0,-100.00,WNW,290,15.0,27.0,57,0.06,,,-99.99,,2013-01-19 22:58:00,
2013-01-19 17:13:00,18.0,6.0,-100.00,WNW,290,15.0,27.0,57,0.06,,,-99.99,,2013-01-19 23:13:00,
2013-01-19 17:25:00,16.0,1.0,-100.00,WNW,285,14.0,28.0,52,0.00,,,-99.99,,2013-01-19 23:25:00,
2013-01-19 17:34:00,16.0,1.0,-100.00,WNW,285,14.0,28.0,52,0.00,,,-99.99,,2013-01-19 23:34:00,
2013-01-19 17:45:00,15.0,1.0,-100.00,West,270,17.0,34.0,54,0.16,,,-99.99,,2013-01-19 23:45:00,
2013-01-19 18:08:00,15.0,1.0,-100.00,West,270,17.0,34.0,54,0.16,,,-99.99,,2013-01-20 00:08:00,
2013-01-19 18:15:00,12.0,2.0,-100.00,WNW,285,15.0,29.0,65,0.00,,,-99.99,,2013-01-20 00:15:00,
2013-01-19 18:25:00,12.0,2.0,-100.00,WNW,285,15.0,29.0,65,0.00,,,-99.99,,2013-01-20 00:25:00,
2013-01-19 18:35:00,12.0,2.0,-100.00,WNW,285,15.0,29.0,65,0.00,,,-99.99,,2013-01-20 00:35:00,
2013-01-19 18:45:00,10.0,-6.0,-100.00,WNW,285,14.0,29.0,47,0.00,,,-99.99,,2013-01-20 00:45:00,
2013-01-19 18:57:00,10.0,-6.0,-100.00,WNW,285,14.0,29.0,47,0.00,,,-99.99,,2013-01-20 00:57:00,
2013-01-19 19:04:00,10.0,-6.0,-100.00,WNW,285,14.0,29.0,47,0.00,,,-99.99,,2013-01-20 01:04:00,
2013-01-19 19:19:00,9.0,-7.0,-100.00,WNW,300,12.0,27.0,49,0.03,,,-99.99,,2013-01-20 01:19:00,
2013-01-19 19:26:00,9.0,-7.0,-100.00,WNW,300,12.0,27.0,49,0.03,,,-99.99,,2013-01-20 01:26:00,
2013-01-19 19:36:00,9.0,-7.0,-100.00,WNW,300,12.0,27.0,49,0.03,,,-99.99,,2013-01-20 01:36:00,
2013-01-19 20:04:00,7.0,-7.0,-100.00,WNW,285,14.0,32.0,53,0.01,,,-99.99,,2013-01-20 02:04:00,
2013-01-19 20:14:00,7.0,-8.0,-100.00,West,270,10.0,26.0,51,0.00,,,-99.99,,2013-01-20 02:14:00,
2013-01-19 20:26:00,7.0,-8.0,-100.00,West,270,10.0,26.0,51,0.00,,,-99.99,,2013-01-20 02:26:00,
2013-01-19 20:35:00,7.0,-8.0,-100.00,West,270,10.0,26.0,51,0.00,,,-99.99,,2013-01-20 02:35:00,
2013-01-19 20:44:00,5.0,-6.0,-100.00,WNW,295,9.0,26.0,60,0.00,,,-99.99,,2013-01-20 02:44:00,
2013-01-19 20:59:00,5.0,-6.0,-100.00,WNW,295,9.0,26.0,60,0.00,,,-99.99,,2013-01-20 02:59:00,
2013-01-19 21:08:00,5.0,-6.0,-100.00,WNW,295,9.0,26.0,60,0.00,,,-99.99,,2013-01-20 03:08:00,
2013-01-19 21:14:00,4.0,-8.0,-100.00,WNW,295,9.0,32.0,57,0.01,,,-99.99,,2013-01-20 03:14:00,
2013-01-19 21:25:00,4.0,-8.0,-100.00,WNW,295,9.0,32.0,57,0.01,,,-99.99,,2013-01-20 03:25:00,
2013-01-19 21:38:00,4.0,-8.0,-100.00,WNW,295,9.0,32.0,57,0.01,,,-99.99,,2013-01-20 03:38:00,
2013-01-19 21:45:00,3.0,-6.0,-100.00,West,275,9.0,25.0,64,0.18,,,-99.99,,2013-01-20 03:45:00,
2013-01-19 21:58:00,3.0,-6.0,-100.00,West,275,9.0,25.0,64,0.18,,,-99.99,,2013-01-20 03:58:00,
2013-01-19 22:05:00,3.0,-6.0,-100.00,West,275,9.0,25.0,64,0.18,,,-99.99,,2013-01-20 04:05:00,
2013-01-19 22:15:00,3.0,-5.0,-100.00,West,280,10.0,22.0,70,0.14,,,-99.99,,2013-01-20 04:15:00,
2013-01-19 22:25:00,3.0,-5.0,-100.00,West,280,10.0,22.0,70,0.14,,,-99.99,,2013-01-20 04:25:00,
2013-01-19 22:35:00,3.0,-5.0,-100.00,West,280,10.0,22.0,70,0.14,,,-99.99,,2013-01-20 04:35:00,
2013-01-19 22:44:00,3.0,-5.0,-100.00,West,270,7.0,23.0,71,0.14,,,-99.99,,2013-01-20 04:44:00,
2013-01-19 22:58:00,3.0,-5.0,-100.00,West,270,7.0,23.0,71,0.14,,,-99.99,,2013-01-20 04:58:00,
2013-01-19 23:04:00,3.0,-5.0,-100.00,West,270,7.0,23.0,71,0.14,,,-99.99,,2013-01-20 05:04:00,
2013-01-19 23:12:00,2.0,-4.0,-100.00,WNW,290,10.0,20.0,73,0.08,,,-99.99,,2013-01-20 05:12:00,
2013-01-19 23:22:00,2.0,-4.0,-100.00,WNW,290,10.0,20.0,73,0.08,,,-99.99,,2013-01-20 05:22:00,
2013-01-19 23:32:00,2.0,-4.0,-100.00,WNW,290,10.0,20.0,73,0.08,,,-99.99,,2013-01-20 05:32:00,
2013-01-19 23:42:00,2.0,-4.0,-100.00,WNW,285,7.0,19.0,74,0.17,,,-99.99,,2013-01-20 05:42:00,
2013-01-19 23:53:00,2.0,-4.0,-100.00,WNW,285,7.0,19.0,74,0.17,,,-99.99,,2013-01-20 05:53:00,